Location: Home
(42.5358°N, 72.7383°W)
Time: 09:46:58
(UTC-05:00)

S-56A Canister/Altair - Pass Details

Date: 08 December 2021
Orbit: 634 x 2499 km, 38.9° (Epoch: 22 January)

Event Time Altitude Azimuth Distance (km) Brightness Sun altitude
Rises 23:18:39 0° 252° (WSW) 5,665 - -69.6°
Reaches altitude 10° 23:22:47 10° 250° (WSW) 4,419 - -69.8°
Maximum altitude 23:34:01 67° 172° (S) 1,565 - -70.2°
Drops below altitude 10° 23:41:19 10° 92° (E) 2,953 - -70.3°
Sets 23:43:35 0° 89° (E) 3,716 - -70.3°
